Time,TemperatureF,DewpointF,PressureIn,WindDirection,WindDirectionDegrees,WindSpeedMPH,WindSpeedGustMPH,Humidity,HourlyPrecipIn,Conditions,Clouds,dailyrainin,SoftwareType,DateUTC
2013-01-14 00:00:00,38.1,33.4,29.64,ENE,66,3.0,7.0,83,0.02,,---,0.12,VWS V14.01,2013-01-14 09:00:00,
2013-01-14 00:04:00,38.2,33.5,29.64,ESE,116,2.0,7.0,83,0.02,,---,0.00,VWS V14.01,2013-01-14 09:04:00,
2013-01-14 00:09:00,38.3,33.6,29.64,ESE,113,4.0,7.0,83,0.02,,---,0.00,VWS V14.01,2013-01-14 09:09:00,
2013-01-14 00:14:00,38.5,33.8,29.63,NE,39,2.0,7.0,83,0.02,,---,0.00,VWS V14.01,2013-01-14 09:14:00,
2013-01-14 00:19:00,38.3,33.6,29.63,ESE,119,0.0,7.0,83,0.02,,---,0.00,VWS V14.01,2013-01-14 09:19:00,
2013-01-14 00:24:00,38.2,33.8,29.62,SE,132,2.0,7.0,84,0.02,,---,0.00,VWS V14.01,2013-01-14 09:24:00,
2013-01-14 00:29:00,38.1,33.7,29.62,East,100,5.0,7.0,84,0.03,,---,0.01,VWS V14.01,2013-01-14 09:29:00,
2013-01-14 00:30:00,38.1,33.7,29.62,ESE,102,4.0,8.0,84,0.03,,---,0.01,VWS V14.01,2013-01-14 09:30:00,
2013-01-14 00:34:00,38.0,33.6,29.62,ESE,105,6.0,8.0,84,0.02,,---,0.01,VWS V14.01,2013-01-14 09:34:00,
2013-01-14 00:39:00,37.9,33.8,29.62,East,94,4.0,10.0,85,0.02,,---,0.01,VWS V14.01,2013-01-14 09:39:00,
2013-01-14 00:44:00,37.9,34.1,29.62,ESE,111,4.0,10.0,86,0.02,,---,0.01,VWS V14.01,2013-01-14 09:44:00,
2013-01-14 00:49:00,37.7,33.9,29.62,ESE,105,2.0,10.0,86,0.02,,---,0.01,VWS V14.01,2013-01-14 09:49:00,
2013-01-14 00:54:00,37.8,34.0,29.62,SE,137,1.0,10.0,86,0.02,,---,0.01,VWS V14.01,2013-01-14 09:54:00,
2013-01-14 00:59:00,37.8,34.0,29.61,ESE,113,1.0,10.0,86,0.03,,---,0.02,VWS V14.01,2013-01-14 09:59:00,
2013-01-14 01:00:00,37.8,34.0,29.61,ENE,78,0.0,10.0,86,0.03,,---,0.02,VWS V14.01,2013-01-14 10:00:00,
2013-01-14 01:04:00,37.7,33.9,29.62,SE,139,4.0,8.0,86,0.02,,---,0.02,VWS V14.01,2013-01-14 10:04:00,
2013-01-14 01:09:00,37.6,34.1,29.62,ESE,114,1.0,12.0,87,0.02,,---,0.02,VWS V14.01,2013-01-14 10:09:00,
2013-01-14 01:14:00,37.7,34.2,29.62,ESE,113,2.0,12.0,87,0.02,,---,0.02,VWS V14.01,2013-01-14 10:14:00,
2013-01-14 01:19:00,37.7,34.2,29.62,ESE,110,2.0,12.0,87,0.02,,---,0.02,VWS V14.01,2013-01-14 10:19:00,
2013-01-14 01:24:00,37.8,34.3,29.62,SE,146,4.0,12.0,87,0.02,,---,0.02,VWS V14.01,2013-01-14 10:24:00,
2013-01-14 01:29:00,37.9,34.4,29.62,ESE,108,5.0,12.0,87,0.03,,---,0.03,VWS V14.01,2013-01-14 10:29:00,
2013-01-14 01:30:00,37.9,34.4,29.62,SE,140,6.0,12.0,87,0.03,,---,0.03,VWS V14.01,2013-01-14 10:30:00,
2013-01-14 01:34:00,37.9,34.4,29.62,ESE,104,5.0,7.0,87,0.02,,---,0.03,VWS V14.01,2013-01-14 10:34:00,
2013-01-14 01:39:00,38.1,34.6,29.61,ESE,121,4.0,7.0,87,0.02,,---,0.03,VWS V14.01,2013-01-14 10:39:00,
2013-01-14 01:44:00,38.0,34.5,29.61,ESE,107,5.0,7.0,87,0.02,,---,0.03,VWS V14.01,2013-01-14 10:44:00,
2013-01-14 01:49:00,38.1,34.6,29.60,ESE,105,2.0,7.0,87,0.02,,---,0.03,VWS V14.01,2013-01-14 10:49:00,
2013-01-14 01:54:00,38.1,34.6,29.61,SE,136,2.0,7.0,87,0.02,,---,0.03,VWS V14.01,2013-01-14 10:54:00,
2013-01-14 01:59:00,38.2,34.4,29.61,SE,138,1.0,8.0,86,0.02,,---,0.03,VWS V14.01,2013-01-14 10:59:00,
2013-01-14 02:00:00,38.2,34.4,29.61,SE,134,4.0,8.0,86,0.02,,---,0.03,VWS V14.01,2013-01-14 11:00:00,
2013-01-14 02:04:00,38.3,34.5,29.62,SE,130,4.0,7.0,86,0.02,,---,0.04,VWS V14.01,2013-01-14 11:04:00,
2013-01-14 02:09:00,38.5,34.7,29.61,SE,139,4.0,7.0,86,0.02,,---,0.04,VWS V14.01,2013-01-14 11:09:00,
2013-01-14 02:14:00,38.4,34.6,29.61,SE,126,5.0,7.0,86,0.02,,---,0.04,VWS V14.01,2013-01-14 11:14:00,
2013-01-14 02:19:00,38.4,34.6,29.60,ESE,109,4.0,7.0,86,0.02,,---,0.04,VWS V14.01,2013-01-14 11:19:00,
2013-01-14 02:24:00,38.4,34.3,29.59,ESE,120,8.0,8.0,85,0.02,,---,0.04,VWS V14.01,2013-01-14 11:24:00,
2013-01-14 02:29:00,38.3,34.5,29.59,ESE,115,2.0,9.0,86,0.02,,---,0.04,VWS V14.01,2013-01-14 11:29:00,
2013-01-14 02:30:00,38.4,34.3,29.58,ESE,117,5.0,9.0,85,0.03,,---,0.05,VWS V14.01,2013-01-14 11:30:00,
2013-01-14 02:34:00,38.3,34.2,29.58,ESE,119,6.0,6.0,85,0.02,,---,0.05,VWS V14.01,2013-01-14 11:34:00,
2013-01-14 02:39:00,38.2,34.4,29.57,SSE,159,2.0,9.0,86,0.02,,---,0.05,VWS V14.01,2013-01-14 11:39:00,
2013-01-14 02:44:00,38.2,34.1,29.58,ESE,102,2.0,9.0,85,0.02,,---,0.05,VWS V14.01,2013-01-14 11:44:00,
2013-01-14 02:49:00,38.2,34.4,29.57,SE,136,4.0,9.0,86,0.02,,---,0.05,VWS V14.01,2013-01-14 11:49:00,
2013-01-14 02:54:00,38.2,34.4,29.57,SE,144,4.0,9.0,86,0.02,,---,0.05,VWS V14.01,2013-01-14 11:54:00,
2013-01-14 02:59:00,38.1,34.3,29.56,SE,146,4.0,9.0,86,0.02,,---,0.05,VWS V14.01,2013-01-14 11:59:00,
2013-01-14 03:00:00,38.1,34.3,29.56,SE,130,0.0,9.0,86,0.02,,---,0.05,VWS V14.01,2013-01-14 12:00:00,
2013-01-14 03:04:00,38.0,34.2,29.57,SE,128,2.0,7.0,86,0.02,,---,0.05,VWS V14.01,2013-01-14 12:04:00,
2013-01-14 03:09:00,38.0,34.2,29.57,ESE,111,5.0,9.0,86,0.02,,---,0.05,VWS V14.01,2013-01-14 12:09:00,
2013-01-14 03:14:00,38.0,34.2,29.56,ESE,105,5.0,9.0,86,0.02,,---,0.05,VWS V14.01,2013-01-14 12:14:00,
2013-01-14 03:19:00,38.0,34.2,29.56,SSE,150,5.0,9.0,86,0.02,,---,0.05,VWS V14.01,2013-01-14 12:19:00,
2013-01-14 03:24:00,38.0,34.2,29.57,SE,126,5.0,9.0,86,0.03,,---,0.06,VWS V14.01,2013-01-14 12:24:00,
2013-01-14 03:29:00,37.9,34.1,29.58,ESE,109,4.0,9.0,86,0.03,,---,0.06,VWS V14.01,2013-01-14 12:29:00,
2013-01-14 03:30:00,37.9,34.1,29.58,East,96,1.0,9.0,86,0.03,,---,0.06,VWS V14.01,2013-01-14 12:30:00,
2013-01-14 03:34:00,37.9,34.1,29.58,SE,136,4.0,5.0,86,0.01,,---,0.06,VWS V14.01,2013-01-14 12:34:00,
2013-01-14 03:39:00,37.8,34.0,29.58,ESE,120,5.0,7.0,86,0.01,,---,0.06,VWS V14.01,2013-01-14 12:39:00,
2013-01-14 03:44:00,37.8,34.0,29.58,SE,128,2.0,7.0,86,0.01,,---,0.06,VWS V14.01,2013-01-14 12:44:00,
2013-01-14 03:49:00,37.8,34.3,29.58,SE,133,4.0,8.0,87,0.01,,---,0.06,VWS V14.01,2013-01-14 12:49:00,
2013-01-14 03:54:00,37.7,34.2,29.58,SE,132,2.0,8.0,87,0.01,,---,0.06,VWS V14.01,2013-01-14 12:54:00,
2013-01-14 03:59:00,37.6,34.1,29.58,SE,125,2.0,8.0,87,0.01,,---,0.06,VWS V14.01,2013-01-14 12:59:00,
2013-01-14 04:00:00,37.6,34.1,29.58,East,89,1.0,8.0,87,0.01,,---,0.06,VWS V14.01,2013-01-14 13:00:00,
2013-01-14 04:04:00,37.6,34.1,29.58,East,93,2.0,5.0,87,0.01,,---,0.06,VWS V14.01,2013-01-14 13:04:00,
2013-01-14 04:09:00,37.6,34.1,29.57,ESE,113,1.0,5.0,87,0.01,,---,0.06,VWS V14.01,2013-01-14 13:09:00,
2013-01-14 04:14:00,37.7,34.2,29.57,ESE,123,2.0,5.0,87,0.01,,---,0.06,VWS V14.01,2013-01-14 13:14:00,
2013-01-14 04:19:00,37.8,34.3,29.56,East,99,2.0,6.0,87,0.02,,---,0.07,VWS V14.01,2013-01-14 13:19:00,
2013-01-14 04:24:00,37.8,34.0,29.55,ESE,102,2.0,6.0,86,0.02,,---,0.07,VWS V14.01,2013-01-14 13:24:00,
2013-01-14 04:29:00,37.8,34.0,29.54,SE,146,8.0,8.0,86,0.02,,---,0.07,VWS V14.01,2013-01-14 13:29:00,
2013-01-14 04:30:00,37.9,34.1,29.54,ESE,118,2.0,8.0,86,0.02,,---,0.07,VWS V14.01,2013-01-14 13:30:00,
2013-01-14 04:34:00,37.9,34.1,29.54,SE,130,6.0,7.0,86,0.01,,---,0.07,VWS V14.01,2013-01-14 13:34:00,
2013-01-14 04:39:00,37.9,34.1,29.53,ESE,115,4.0,7.0,86,0.01,,---,0.07,VWS V14.01,2013-01-14 13:39:00,
2013-01-14 04:44:00,38.0,34.2,29.53,SE,126,2.0,7.0,86,0.01,,---,0.07,VWS V14.01,2013-01-14 13:44:00,
2013-01-14 04:49:00,37.9,34.1,29.53,SE,132,5.0,7.0,86,0.01,,---,0.07,VWS V14.01,2013-01-14 13:49:00,
2013-01-14 04:54:00,38.0,33.9,29.52,ESE,111,6.0,7.0,85,0.01,,---,0.07,VWS V14.01,2013-01-14 13:54:00,
2013-01-14 04:59:00,38.0,33.9,29.52,SE,140,2.0,7.0,85,0.01,,---,0.07,VWS V14.01,2013-01-14 13:59:00,
2013-01-14 05:00:00,38.0,33.9,29.52,SE,140,5.0,7.0,85,0.01,,---,0.07,VWS V14.01,2013-01-14 14:00:00,
2013-01-14 05:04:00,38.1,34.0,29.52,SE,128,1.0,6.0,85,0.01,,---,0.07,VWS V14.01,2013-01-14 14:04:00,
2013-01-14 05:09:00,38.1,34.0,29.51,ESE,119,4.0,6.0,85,0.01,,---,0.07,VWS V14.01,2013-01-14 14:09:00,
2013-01-14 05:14:00,38.1,34.0,29.50,East,92,2.0,7.0,85,0.01,,---,0.07,VWS V14.01,2013-01-14 14:14:00,
2013-01-14 05:19:00,38.1,33.7,29.50,SE,136,4.0,7.0,84,0.01,,---,0.07,VWS V14.01,2013-01-14 14:19:00,
2013-01-14 05:24:00,38.1,33.7,29.50,ESE,123,1.0,9.0,84,0.01,,---,0.07,VWS V14.01,2013-01-14 14:24:00,
2013-01-14 05:29:00,38.2,33.8,29.50,ESE,117,2.0,9.0,84,0.01,,---,0.07,VWS V14.01,2013-01-14 14:29:00,
2013-01-14 05:30:00,38.3,33.9,29.50,SE,133,2.0,9.0,84,0.02,,---,0.08,VWS V14.01,2013-01-14 14:30:00,
2013-01-14 05:34:00,38.3,33.9,29.49,SSE,150,7.0,7.0,84,0.01,,---,0.08,VWS V14.01,2013-01-14 14:34:00,
2013-01-14 05:39:00,38.3,33.6,29.48,ENE,59,3.0,11.0,83,0.01,,---,0.08,VWS V14.01,2013-01-14 14:39:00,
2013-01-14 05:44:00,38.4,34.0,29.47,ESE,113,1.0,11.0,84,0.01,,---,0.08,VWS V14.01,2013-01-14 14:44:00,
2013-01-14 05:49:00,38.4,33.7,29.48,SE,129,2.0,11.0,83,0.01,,---,0.08,VWS V14.01,2013-01-14 14:49:00,
2013-01-14 05:54:00,38.5,33.8,29.47,ESE,105,2.0,11.0,83,0.01,,---,0.08,VWS V14.01,2013-01-14 14:54:00,
2013-01-14 05:59:00,38.6,33.6,29.48,SSE,147,0.0,11.0,82,0.01,,---,0.08,VWS V14.01,2013-01-14 14:59:00,
2013-01-14 06:00:00,38.6,33.9,29.48,ESE,119,2.0,11.0,83,0.01,,---,0.08,VWS V14.01,2013-01-14 15:00:00,
2013-01-14 06:04:00,38.6,33.9,29.48,SE,142,4.0,5.0,83,0.01,,---,0.08,VWS V14.01,2013-01-14 15:04:00,
2013-01-14 06:09:00,38.6,33.6,29.48,ESE,107,2.0,5.0,82,0.01,,---,0.08,VWS V14.01,2013-01-14 15:09:00,
2013-01-14 06:14:00,38.6,33.6,29.47,East,89,2.0,6.0,82,0.01,,---,0.08,VWS V14.01,2013-01-14 15:14:00,
2013-01-14 06:19:00,38.6,33.6,29.47,South,169,1.0,6.0,82,0.01,,---,0.08,VWS V14.01,2013-01-14 15:19:00,
2013-01-14 06:24:00,38.6,33.6,29.47,East,90,2.0,6.0,82,0.01,,---,0.08,VWS V14.01,2013-01-14 15:24:00,
2013-01-14 06:29:00,38.7,33.4,29.48,SE,138,0.0,6.0,81,0.01,,---,0.08,VWS V14.01,2013-01-14 15:29:00,
2013-01-14 06:30:00,38.7,33.4,29.48,ESE,118,4.0,6.0,81,0.01,,---,0.08,VWS V14.01,2013-01-14 15:30:00,
2013-01-14 06:34:00,38.8,33.5,29.48,ESE,108,0.0,4.0,81,0.00,,---,0.08,VWS V14.01,2013-01-14 15:34:00,
2013-01-14 06:38:00,38.8,33.5,29.47,SE,126,2.0,5.0,81,0.00,,---,0.08,VWS V14.01,2013-01-14 15:38:00,
2013-01-14 06:43:00,38.9,33.3,29.47,East,84,0.0,5.0,80,0.00,,---,0.08,VWS V14.01,2013-01-14 15:43:00,
2013-01-14 06:48:00,39.0,33.4,29.46,ESE,108,4.0,7.0,80,0.01,,---,0.09,VWS V14.01,2013-01-14 15:48:00,
2013-01-14 06:53:00,39.1,33.5,29.46,ESE,121,2.0,7.0,80,0.01,,---,0.09,VWS V14.01,2013-01-14 15:53:00,
2013-01-14 06:58:00,39.0,33.4,29.46,East,101,1.0,7.0,80,0.01,,---,0.09,VWS V14.01,2013-01-14 15:58:00,
2013-01-14 07:00:00,38.9,33.3,29.46,ESE,105,2.0,7.0,80,0.01,,---,0.09,VWS V14.01,2013-01-14 16:00:00,
2013-01-14 07:03:00,38.9,33.3,29.46,East,95,2.0,4.0,80,0.01,,---,0.09,VWS V14.01,2013-01-14 16:03:00,
2013-01-14 07:08:00,39.0,33.4,29.45,ESE,117,4.0,6.0,80,0.01,,---,0.09,VWS V14.01,2013-01-14 16:08:00,
2013-01-14 07:13:00,39.3,33.3,29.45,SSE,153,1.0,7.0,79,0.01,,---,0.09,VWS V14.01,2013-01-14 16:13:00,
2013-01-14 07:18:00,39.4,33.4,29.44,East,101,4.0,7.0,79,0.01,,---,0.09,VWS V14.01,2013-01-14 16:18:00,
2013-01-14 07:23:00,39.3,33.3,29.44,ESE,116,0.0,7.0,79,0.01,,---,0.09,VWS V14.01,2013-01-14 16:23:00,
2013-01-14 07:28:00,39.3,33.3,29.44,SE,124,2.0,7.0,79,0.01,,---,0.09,VWS V14.01,2013-01-14 16:28:00,
2013-01-14 07:30:00,39.4,33.1,29.43,ESE,121,0.0,7.0,78,0.01,,---,0.09,VWS V14.01,2013-01-14 16:30:00,
2013-01-14 07:33:00,39.4,33.1,29.43,SE,130,4.0,8.0,78,0.01,,---,0.09,VWS V14.01,2013-01-14 16:33:00,
2013-01-14 07:38:00,39.7,33.1,29.43,East,79,1.0,8.0,77,0.01,,---,0.09,VWS V14.01,2013-01-14 16:38:00,
2013-01-14 07:43:00,39.7,33.1,29.43,East,101,1.0,8.0,77,0.01,,---,0.09,VWS V14.01,2013-01-14 16:43:00,
2013-01-14 07:48:00,39.7,33.1,29.42,ESE,108,1.0,8.0,77,0.01,,---,0.09,VWS V14.01,2013-01-14 16:48:00,
2013-01-14 07:53:00,39.8,33.2,29.42,SE,130,1.0,8.0,77,0.01,,---,0.09,VWS V14.01,2013-01-14 16:53:00,
2013-01-14 07:58:00,40.0,33.1,29.43,ESE,111,0.0,8.0,76,0.01,,---,0.09,VWS V14.01,2013-01-14 16:58:00,
2013-01-14 08:00:00,40.0,33.1,29.43,ESE,116,4.0,10.0,76,0.01,,---,0.09,VWS V14.01,2013-01-14 17:00:00,
2013-01-14 08:03:00,40.1,33.2,29.43,ESE,123,1.0,5.0,76,0.00,,---,0.09,VWS V14.01,2013-01-14 17:03:00,
2013-01-14 08:08:00,40.2,33.2,29.43,SE,130,4.0,5.0,76,0.00,,---,0.09,VWS V14.01,2013-01-14 17:08:00,
2013-01-14 08:13:00,40.2,33.2,29.43,East,97,2.0,5.0,76,0.00,,---,0.09,VWS V14.01,2013-01-14 17:13:00,
2013-01-14 08:18:00,40.4,33.1,29.43,ENE,75,1.0,8.0,75,0.00,,---,0.09,VWS V14.01,2013-01-14 17:18:00,
2013-01-14 08:23:00,40.5,33.2,29.43,ESE,122,2.0,8.0,75,0.00,,---,0.09,VWS V14.01,2013-01-14 17:23:00,
2013-01-14 08:28:00,40.5,32.9,29.43,ESE,115,2.0,8.0,74,0.00,,---,0.09,VWS V14.01,2013-01-14 17:28:00,
2013-01-14 08:30:00,40.5,32.9,29.43,ESE,121,4.0,8.0,74,0.00,,---,0.09,VWS V14.01,2013-01-14 17:30:00,
2013-01-14 08:33:00,40.5,32.9,29.43,East,100,1.0,5.0,74,0.00,,---,0.09,VWS V14.01,2013-01-14 17:33:00,
2013-01-14 08:38:00,40.6,33.0,29.43,SE,134,1.0,7.0,74,0.00,,---,0.09,VWS V14.01,2013-01-14 17:38:00,
2013-01-14 08:43:00,40.6,33.3,29.42,SE,142,4.0,7.0,75,0.00,,---,0.09,VWS V14.01,2013-01-14 17:43:00,
2013-01-14 08:48:00,40.5,33.5,29.42,ESE,121,1.0,7.0,76,0.00,,---,0.09,VWS V14.01,2013-01-14 17:48:00,
2013-01-14 08:53:00,40.3,33.7,29.42,SE,138,0.0,7.0,77,0.01,,---,0.10,VWS V14.01,2013-01-14 17:53:00,
2013-01-14 08:58:00,40.0,33.7,29.42,ESE,110,0.0,7.0,78,0.01,,---,0.10,VWS V14.01,2013-01-14 17:58:00,
2013-01-14 09:00:00,39.8,33.8,29.41,NE,46,4.0,7.0,79,0.01,,---,0.10,VWS V14.01,2013-01-14 18:00:00,
2013-01-14 09:03:00,39.7,34.0,29.41,ENE,65,3.0,5.0,80,0.01,,---,0.10,VWS V14.01,2013-01-14 18:03:00,
2013-01-14 09:08:00,39.2,33.9,29.39,NNW,348,4.0,6.0,81,0.01,,---,0.10,VWS V14.01,2013-01-14 18:08:00,
2013-01-14 09:13:00,39.1,33.8,29.39,SSE,154,5.0,8.0,81,0.01,,---,0.10,VWS V14.01,2013-01-14 18:13:00,
2013-01-14 09:18:00,39.2,33.9,29.39,NNE,33,4.0,8.0,81,0.01,,---,0.10,VWS V14.01,2013-01-14 18:18:00,
2013-01-14 09:23:00,39.6,33.6,29.38,SE,139,1.0,11.0,79,0.02,,---,0.11,VWS V14.01,2013-01-14 18:23:00,
2013-01-14 09:28:00,39.7,33.4,29.37,ENE,59,2.0,11.0,78,0.02,,---,0.11,VWS V14.01,2013-01-14 18:28:00,
2013-01-14 09:30:00,39.7,33.4,29.36,North,5,1.0,11.0,78,0.02,,---,0.11,VWS V14.01,2013-01-14 18:30:00,
2013-01-14 09:33:00,39.7,33.4,29.35,ENE,57,6.0,9.0,78,0.02,,---,0.11,VWS V14.01,2013-01-14 18:33:00,
2013-01-14 09:38:00,39.7,33.1,29.34,ESE,109,7.0,9.0,77,0.02,,---,0.11,VWS V14.01,2013-01-14 18:38:00,
2013-01-14 09:43:00,39.9,33.0,29.33,SE,127,6.0,11.0,76,0.02,,---,0.11,VWS V14.01,2013-01-14 18:43:00,
2013-01-14 09:48:00,40.0,33.1,29.32,NE,42,6.0,11.0,76,0.02,,---,0.11,VWS V14.01,2013-01-14 18:48:00,
2013-01-14 09:53:00,40.2,32.9,29.33,SSE,152,2.0,11.0,75,0.02,,---,0.11,VWS V14.01,2013-01-14 18:53:00,
2013-01-14 09:58:00,40.4,33.1,29.35,East,87,2.0,11.0,75,0.02,,---,0.11,VWS V14.01,2013-01-14 18:58:00,
2013-01-14 10:00:00,40.4,33.1,29.36,SE,130,7.0,11.0,75,0.02,,---,0.11,VWS V14.01,2013-01-14 19:00:00,
2013-01-14 10:03:00,40.4,32.8,29.37,East,99,2.0,7.0,74,0.01,,---,0.11,VWS V14.01,2013-01-14 19:03:00,
2013-01-14 10:08:00,40.5,32.9,29.38,SSE,161,7.0,7.0,74,0.01,,---,0.11,VWS V14.01,2013-01-14 19:08:00,
2013-01-14 10:13:00,40.4,33.1,29.39,SSE,155,2.0,8.0,75,0.01,,---,0.11,VWS V14.01,2013-01-14 19:13:00,
2013-01-14 10:18:00,40.1,33.2,29.39,South,169,2.0,8.0,76,0.01,,---,0.11,VWS V14.01,2013-01-14 19:18:00,
2013-01-14 10:23:00,39.9,33.3,29.39,SSE,163,4.0,8.0,77,0.01,,---,0.11,VWS V14.01,2013-01-14 19:23:00,
2013-01-14 10:28:00,39.8,33.2,29.40,ESE,113,2.0,8.0,77,0.01,,---,0.11,VWS V14.01,2013-01-14 19:28:00,
2013-01-14 10:30:00,39.9,33.0,29.40,SE,138,0.0,8.0,76,0.01,,---,0.11,VWS V14.01,2013-01-14 19:30:00,
2013-01-14 10:33:00,40.0,33.4,29.40,SE,138,2.0,2.0,77,0.00,,---,0.11,VWS V14.01,2013-01-14 19:33:00,
2013-01-14 10:38:00,39.8,33.2,29.40,ESE,104,4.0,5.0,77,0.00,,---,0.11,VWS V14.01,2013-01-14 19:38:00,
2013-01-14 10:43:00,39.7,33.4,29.41,East,88,2.0,5.0,78,0.00,,---,0.11,VWS V14.01,2013-01-14 19:43:00,
2013-01-14 10:48:00,39.6,33.6,29.42,East,87,0.0,5.0,79,0.00,,---,0.11,VWS V14.01,2013-01-14 19:48:00,
2013-01-14 10:53:00,39.4,33.4,29.42,East,87,1.0,5.0,79,0.00,,---,0.11,VWS V14.01,2013-01-14 19:53:00,
2013-01-14 10:58:00,39.3,33.7,29.42,ESE,121,0.0,5.0,80,0.00,,---,0.11,VWS V14.01,2013-01-14 19:58:00,
2013-01-14 11:00:00,39.3,33.7,29.43,ESE,121,0.0,5.0,80,0.00,,---,0.11,VWS V14.01,2013-01-14 20:00:00,
2013-01-14 11:03:00,39.3,33.7,29.43,ESE,121,0.0,1.0,80,0.00,,---,0.11,VWS V14.01,2013-01-14 20:03:00,
2013-01-14 11:08:00,39.3,33.7,29.43,ENE,68,3.0,4.0,80,0.00,,---,0.11,VWS V14.01,2013-01-14 20:08:00,
2013-01-14 11:13:00,39.4,33.8,29.43,SE,134,0.0,4.0,80,0.00,,---,0.11,VWS V14.01,2013-01-14 20:13:00,
2013-01-14 11:18:00,39.4,33.8,29.43,SE,134,0.0,4.0,80,0.00,,---,0.11,VWS V14.01,2013-01-14 20:18:00,
2013-01-14 11:23:00,39.4,33.8,29.43,ENE,65,2.0,4.0,80,0.00,,---,0.11,VWS V14.01,2013-01-14 20:23:00,
2013-01-14 11:28:00,39.2,33.6,29.44,ENE,57,2.0,4.0,80,0.00,,---,0.11,VWS V14.01,2013-01-14 20:28:00,
2013-01-14 11:30:00,38.8,33.2,29.44,NW,314,3.0,5.0,80,0.00,,---,0.11,VWS V14.01,2013-01-14 20:30:00,
2013-01-14 11:33:00,38.6,33.3,29.44,NNW,329,2.0,5.0,81,0.00,,---,0.11,VWS V14.01,2013-01-14 20:33:00,
2013-01-14 11:38:00,37.8,33.1,29.44,WNW,292,4.0,5.0,83,0.00,,---,0.11,VWS V14.01,2013-01-14 20:38:00,
2013-01-14 11:43:00,37.3,32.9,29.44,NNW,331,2.0,5.0,84,0.00,,---,0.11,VWS V14.01,2013-01-14 20:43:00,
2013-01-14 11:53:00,37.2,33.1,29.44,NW,320,3.0,3.0,85,0.00,,---,0.11,VWS V14.01,2013-01-14 20:53:00,
2013-01-14 11:58:00,37.3,33.2,29.45,NW,321,1.0,3.0,85,0.00,,---,0.11,VWS V14.01,2013-01-14 20:58:00,
2013-01-14 12:03:00,37.5,33.1,29.46,NW,313,3.0,4.0,84,0.00,,---,0.11,VWS V14.01,2013-01-14 21:03:00,
2013-01-14 12:08:00,37.6,33.2,29.47,WNW,300,2.0,4.0,84,0.00,,---,0.11,VWS V14.01,2013-01-14 21:08:00,
2013-01-14 12:13:00,37.4,33.3,29.48,NW,317,2.0,4.0,85,0.00,,---,0.11,VWS V14.01,2013-01-14 21:13:00,
2013-01-14 12:18:00,37.3,33.2,29.48,WNW,297,3.0,4.0,85,0.00,,---,0.11,VWS V14.01,2013-01-14 21:18:00,
2013-01-14 12:23:00,37.2,33.1,29.49,WNW,288,2.0,6.0,85,0.00,,---,0.11,VWS V14.01,2013-01-14 21:23:00,
2013-01-14 12:28:00,36.9,33.1,29.49,WNW,295,2.0,6.0,86,0.00,,---,0.11,VWS V14.01,2013-01-14 21:28:00,
2013-01-14 12:33:00,36.4,32.9,29.48,NW,310,2.0,6.0,87,0.00,,---,0.11,VWS V14.01,2013-01-14 21:33:00,
2013-01-14 12:38:00,35.9,32.7,29.48,NW,305,3.0,7.0,88,0.00,,---,0.11,VWS V14.01,2013-01-14 21:38:00,
2013-01-14 12:43:00,35.2,32.6,29.49,WNW,286,4.0,11.0,90,0.00,,---,0.11,VWS V14.01,2013-01-14 21:43:00,
2013-01-14 12:48:00,34.7,32.3,29.49,WNW,299,3.0,11.0,91,0.00,,---,0.11,VWS V14.01,2013-01-14 21:48:00,
2013-01-14 12:53:00,34.4,32.3,29.50,WNW,293,4.0,11.0,92,0.00,,---,0.11,VWS V14.01,2013-01-14 21:53:00,
2013-01-14 12:58:00,34.2,32.4,29.50,NW,321,1.0,11.0,93,0.01,,---,0.12,VWS V14.01,2013-01-14 21:58:00,
2013-01-14 13:03:00,34.1,32.6,29.50,NW,317,2.0,2.0,94,0.01,,---,0.12,VWS V14.01,2013-01-14 22:03:00,
2013-01-14 13:08:00,34.1,32.6,29.51,WNW,299,1.0,3.0,94,0.01,,---,0.12,VWS V14.01,2013-01-14 22:08:00,
2013-01-14 13:13:00,34.1,32.6,29.51,NW,305,2.0,3.0,94,0.01,,---,0.12,VWS V14.01,2013-01-14 22:13:00,
2013-01-14 13:18:00,34.2,32.9,29.51,NW,316,1.0,5.0,95,0.01,,---,0.12,VWS V14.01,2013-01-14 22:18:00,
2013-01-14 13:23:00,34.5,33.2,29.52,WNW,284,3.0,5.0,95,0.01,,---,0.12,VWS V14.01,2013-01-14 22:23:00,
2013-01-14 13:28:00,34.6,33.3,29.52,WNW,300,2.0,5.0,95,0.01,,---,0.12,VWS V14.01,2013-01-14 22:28:00,
2013-01-14 13:33:00,34.7,33.4,29.52,WNW,289,1.0,6.0,95,0.02,,---,0.13,VWS V14.01,2013-01-14 22:33:00,
2013-01-14 13:38:00,34.7,33.4,29.52,West,277,1.0,6.0,95,0.02,,---,0.13,VWS V14.01,2013-01-14 22:38:00,
2013-01-14 13:43:00,34.7,33.4,29.53,WNW,296,3.0,6.0,95,0.02,,---,0.13,VWS V14.01,2013-01-14 22:43:00,
2013-01-14 13:47:00,34.8,33.5,29.53,West,261,0.0,6.0,95,0.02,,---,0.13,VWS V14.01,2013-01-14 22:47:00,
2013-01-14 13:52:00,34.8,33.5,29.53,West,272,1.0,6.0,95,0.03,,---,0.14,VWS V14.01,2013-01-14 22:52:00,
2013-01-14 13:57:00,34.8,33.5,29.54,West,273,1.0,6.0,95,0.03,,---,0.14,VWS V14.01,2013-01-14 22:57:00,
2013-01-14 14:02:00,34.8,33.5,29.54,West,281,0.0,5.0,95,0.02,,---,0.14,VWS V14.01,2013-01-14 23:02:00,
2013-01-14 14:07:00,34.9,33.6,29.54,West,267,0.0,5.0,95,0.03,,---,0.15,VWS V14.01,2013-01-14 23:07:00,
2013-01-14 14:12:00,34.8,33.5,29.55,West,279,1.0,5.0,95,0.03,,---,0.15,VWS V14.01,2013-01-14 23:12:00,
2013-01-14 14:17:00,34.6,33.3,29.55,WNW,302,1.0,5.0,95,0.03,,---,0.15,VWS V14.01,2013-01-14 23:17:00,
2013-01-14 14:22:00,34.4,33.1,29.56,NW,325,3.0,7.0,95,0.03,,---,0.15,VWS V14.01,2013-01-14 23:22:00,
2013-01-14 14:27:00,34.1,32.8,29.56,WNW,293,0.0,7.0,95,0.03,,---,0.15,VWS V14.01,2013-01-14 23:27:00,
2013-01-14 14:32:00,33.8,32.5,29.57,SW,229,2.0,3.0,95,0.02,,---,0.15,VWS V14.01,2013-01-14 23:32:00,
2013-01-14 14:37:00,33.5,32.2,29.57,SSW,202,0.0,4.0,95,0.02,,---,0.15,VWS V14.01,2013-01-14 23:37:00,
2013-01-14 14:42:00,33.0,31.7,29.58,SSW,208,0.0,8.0,95,0.02,,---,0.15,VWS V14.01,2013-01-14 23:42:00,
2013-01-14 14:47:00,32.5,31.2,29.58,SSW,204,0.0,8.0,95,0.02,,---,0.15,VWS V14.01,2013-01-14 23:47:00,
2013-01-14 14:52:00,32.3,31.0,29.58,SW,221,1.0,8.0,95,0.03,,---,0.16,VWS V14.01,2013-01-14 23:52:00,
2013-01-14 14:57:00,32.0,30.7,29.59,SW,234,1.0,8.0,95,0.03,,---,0.16,VWS V14.01,2013-01-14 23:57:00,
2013-01-14 15:02:00,31.8,30.8,29.59,SW,221,0.0,1.0,96,0.02,,---,0.16,VWS V14.01,2013-01-15 00:02:00,
2013-01-14 15:07:00,31.7,30.7,29.59,SW,221,2.0,3.0,96,0.02,,---,0.16,VWS V14.01,2013-01-15 00:07:00,
2013-01-14 15:12:00,31.6,30.6,29.60,SW,221,2.0,3.0,96,0.02,,---,0.16,VWS V14.01,2013-01-15 00:12:00,
2013-01-14 15:17:00,31.6,30.6,29.60,SW,221,0.0,5.0,96,0.02,,---,0.16,VWS V14.01,2013-01-15 00:17:00,
2013-01-14 15:22:00,31.5,30.5,29.60,SW,221,0.0,5.0,96,0.02,,---,0.16,VWS V14.01,2013-01-15 00:22:00,
2013-01-14 15:27:00,31.6,30.6,29.60,SW,221,2.0,5.0,96,0.02,,---,0.16,VWS V14.01,2013-01-15 00:27:00,
2013-01-14 15:32:00,31.7,30.7,29.60,SW,221,0.0,1.0,96,0.01,,---,0.16,VWS V14.01,2013-01-15 00:32:00,
2013-01-14 15:37:00,31.8,30.8,29.60,SW,221,0.0,4.0,96,0.01,,---,0.16,VWS V14.01,2013-01-15 00:37:00,
2013-01-14 15:42:00,31.9,30.9,29.60,SW,221,1.0,4.0,96,0.01,,---,0.16,VWS V14.01,2013-01-15 00:42:00,
2013-01-14 15:47:00,31.9,30.9,29.60,SW,221,1.0,4.0,96,0.01,,---,0.16,VWS V14.01,2013-01-15 00:47:00,
2013-01-14 15:52:00,32.0,31.2,29.61,SW,221,0.0,4.0,97,0.01,,---,0.16,VWS V14.01,2013-01-15 00:52:00,
2013-01-14 15:57:00,32.1,31.4,29.61,SW,221,0.0,4.0,97,0.01,,---,0.16,VWS V14.01,2013-01-15 00:57:00,
2013-01-14 16:02:00,32.1,31.4,29.61,SW,221,1.0,4.0,97,0.00,,---,0.16,VWS V14.01,2013-01-15 01:02:00,
2013-01-14 16:07:00,32.2,31.5,29.62,SW,221,3.0,4.0,97,0.00,,---,0.16,VWS V14.01,2013-01-15 01:07:00,
2013-01-14 16:12:00,32.2,31.5,29.62,SW,221,0.0,4.0,97,0.00,,---,0.16,VWS V14.01,2013-01-15 01:12:00,
2013-01-14 16:17:00,32.1,31.4,29.63,SW,221,2.0,4.0,97,0.00,,---,0.16,VWS V14.01,2013-01-15 01:17:00,
2013-01-14 16:22:00,32.0,31.2,29.64,SW,221,0.0,4.0,97,0.00,,---,0.16,VWS V14.01,2013-01-15 01:22:00,
2013-01-14 16:27:00,31.9,30.9,29.64,SW,221,1.0,4.0,96,0.00,,---,0.16,VWS V14.01,2013-01-15 01:27:00,
2013-01-14 16:32:00,31.7,30.7,29.64,SW,221,1.0,2.0,96,0.00,,---,0.16,VWS V14.01,2013-01-15 01:32:00,
2013-01-14 16:37:00,31.5,30.5,29.65,SW,221,0.0,4.0,96,0.00,,---,0.16,VWS V14.01,2013-01-15 01:37:00,
2013-01-14 16:42:00,31.3,30.5,29.65,SW,221,1.0,4.0,97,0.00,,---,0.16,VWS V14.01,2013-01-15 01:42:00,
2013-01-14 16:47:00,31.2,30.2,29.65,SW,221,0.0,4.0,96,0.00,,---,0.16,VWS V14.01,2013-01-15 01:47:00,
2013-01-14 16:52:00,31.1,30.1,29.65,SW,221,1.0,6.0,96,0.00,,---,0.16,VWS V14.01,2013-01-15 01:52:00,
2013-01-14 16:57:00,31.1,30.1,29.65,SW,221,1.0,8.0,96,0.00,,---,0.16,VWS V14.01,2013-01-15 01:57:00,
2013-01-14 17:02:00,31.0,30.2,29.65,SW,221,0.0,5.0,97,0.00,,---,0.16,VWS V14.01,2013-01-15 02:02:00,
2013-01-14 17:07:00,31.0,30.2,29.66,SW,221,1.0,6.0,97,0.00,,---,0.16,VWS V14.01,2013-01-15 02:07:00,
2013-01-14 17:12:00,30.9,30.1,29.66,SW,221,1.0,6.0,97,0.00,,---,0.16,VWS V14.01,2013-01-15 02:12:00,
2013-01-14 17:17:00,30.8,30.0,29.66,SW,221,0.0,6.0,97,0.00,,---,0.16,VWS V14.01,2013-01-15 02:17:00,
2013-01-14 17:22:00,30.9,30.1,29.67,SW,221,1.0,6.0,97,0.00,,---,0.16,VWS V14.01,2013-01-15 02:22:00,
2013-01-14 17:27:00,31.0,30.2,29.67,SW,221,5.0,6.0,97,0.00,,---,0.16,VWS V14.01,2013-01-15 02:27:00,
2013-01-14 17:32:00,31.0,30.2,29.67,SW,221,2.0,6.0,97,0.00,,---,0.16,VWS V14.01,2013-01-15 02:32:00,
2013-01-14 17:37:00,31.0,30.2,29.68,SW,221,1.0,6.0,97,0.00,,---,0.16,VWS V14.01,2013-01-15 02:37:00,
2013-01-14 17:42:00,31.1,30.4,29.67,SW,221,1.0,6.0,97,0.00,,---,0.16,VWS V14.01,2013-01-15 02:42:00,
2013-01-14 17:47:00,31.2,30.5,29.68,SW,221,0.0,6.0,97,0.00,,---,0.16,VWS V14.01,2013-01-15 02:47:00,
2013-01-14 17:52:00,31.3,30.5,29.68,SW,221,2.0,6.0,97,0.00,,---,0.16,VWS V14.01,2013-01-15 02:52:00,
2013-01-14 17:57:00,31.3,30.5,29.68,SW,221,1.0,6.0,97,0.00,,---,0.16,VWS V14.01,2013-01-15 02:57:00,
2013-01-14 18:02:00,31.4,30.6,29.69,SW,221,3.0,4.0,97,0.00,,---,0.16,VWS V14.01,2013-01-15 03:02:00,
2013-01-14 18:07:00,31.5,30.8,29.68,SW,221,6.0,8.0,97,0.00,,---,0.16,VWS V14.01,2013-01-15 03:07:00,
2013-01-14 18:12:00,31.7,31.0,29.69,SW,221,3.0,8.0,97,0.00,,---,0.16,VWS V14.01,2013-01-15 03:12:00,
2013-01-14 18:17:00,31.8,31.0,29.69,SW,221,1.0,8.0,97,0.00,,---,0.16,VWS V14.01,2013-01-15 03:17:00,
2013-01-14 18:22:00,31.9,31.1,29.69,SW,221,3.0,9.0,97,0.00,,---,0.16,VWS V14.01,2013-01-15 03:22:00,
2013-01-14 18:27:00,31.9,31.1,29.69,SW,221,2.0,9.0,97,0.00,,---,0.16,VWS V14.01,2013-01-15 03:27:00,
2013-01-14 18:32:00,31.9,31.1,29.70,SW,221,1.0,3.0,97,0.00,,---,0.16,VWS V14.01,2013-01-15 03:32:00,
2013-01-14 18:37:00,31.9,31.1,29.70,SW,221,3.0,5.0,97,0.00,,---,0.16,VWS V14.01,2013-01-15 03:37:00,
2013-01-14 18:42:00,31.9,31.1,29.70,SW,221,2.0,5.0,97,0.00,,---,0.16,VWS V14.01,2013-01-15 03:42:00,
2013-01-14 18:47:00,31.9,31.1,29.70,SW,221,2.0,5.0,97,0.00,,---,0.16,VWS V14.01,2013-01-15 03:47:00,
2013-01-14 18:52:00,31.8,31.0,29.71,SW,221,1.0,6.0,97,0.00,,---,0.16,VWS V14.01,2013-01-15 03:52:00,
2013-01-14 18:57:00,31.8,31.0,29.71,SW,221,2.0,6.0,97,0.00,,---,0.16,VWS V14.01,2013-01-15 03:57:00,
2013-01-14 19:02:00,31.8,31.0,29.71,SW,221,1.0,2.0,97,0.00,,---,0.16,VWS V14.01,2013-01-15 04:02:00,
2013-01-14 19:07:00,31.7,31.0,29.71,SW,221,2.0,3.0,97,0.00,,---,0.16,VWS V14.01,2013-01-15 04:07:00,
2013-01-14 19:12:00,31.7,31.0,29.72,SW,221,2.0,5.0,97,0.00,,---,0.16,VWS V14.01,2013-01-15 04:12:00,
2013-01-14 19:17:00,31.8,31.0,29.72,SW,221,1.0,5.0,97,0.00,,---,0.16,VWS V14.01,2013-01-15 04:17:00,
2013-01-14 19:22:00,31.8,31.0,29.72,SW,221,0.0,5.0,97,0.00,,---,0.16,VWS V14.01,2013-01-15 04:22:00,
2013-01-14 19:27:00,31.8,31.0,29.73,SW,221,0.0,5.0,97,0.00,,---,0.16,VWS V14.01,2013-01-15 04:27:00,
2013-01-14 19:32:00,31.8,31.0,29.73,SW,221,3.0,3.0,97,0.00,,---,0.16,VWS V14.01,2013-01-15 04:32:00,
2013-01-14 19:37:00,31.8,31.0,29.73,SW,221,0.0,6.0,97,0.00,,---,0.16,VWS V14.01,2013-01-15 04:37:00,
2013-01-14 19:42:00,31.8,31.0,29.74,SW,221,3.0,6.0,97,0.00,,---,0.16,VWS V14.01,2013-01-15 04:42:00,
2013-01-14 19:47:00,31.8,31.0,29.74,SW,221,2.0,6.0,97,0.00,,---,0.16,VWS V14.01,2013-01-15 04:47:00,
2013-01-14 19:52:00,31.8,31.0,29.74,SW,221,3.0,6.0,97,0.00,,---,0.16,VWS V14.01,2013-01-15 04:52:00,
2013-01-14 19:57:00,31.8,31.0,29.74,SW,221,1.0,6.0,97,0.00,,---,0.16,VWS V14.01,2013-01-15 04:57:00,
2013-01-14 20:00:00,31.8,31.0,29.74,SW,221,1.0,6.0,97,0.00,,---,0.16,VWS V14.01,2013-01-15 05:00:00,
2013-01-14 20:01:00,31.8,31.0,29.74,SW,221,1.0,6.0,97,0.00,,---,0.16,VWS V14.01,2013-01-15 05:01:00,
2013-01-14 20:06:00,31.8,31.0,29.74,SW,221,1.0,4.0,97,0.00,,---,0.16,VWS V14.01,2013-01-15 05:06:00,
2013-01-14 20:11:00,31.7,31.0,29.75,SW,221,2.0,5.0,97,0.00,,---,0.16,VWS V14.01,2013-01-15 05:11:00,
2013-01-14 20:16:00,31.7,31.0,29.75,SW,221,0.0,7.0,97,0.00,,---,0.16,VWS V14.01,2013-01-15 05:16:00,
2013-01-14 20:21:00,31.7,31.0,29.75,SW,221,0.0,7.0,97,0.00,,---,0.16,VWS V14.01,2013-01-15 05:21:00,
2013-01-14 20:26:00,31.6,30.9,29.75,SW,221,0.0,7.0,97,0.00,,---,0.16,VWS V14.01,2013-01-15 05:26:00,
2013-01-14 20:31:00,31.6,30.9,29.76,SW,221,0.0,7.0,97,0.00,,---,0.16,VWS V14.01,2013-01-15 05:31:00,
2013-01-14 20:36:00,31.6,30.9,29.76,SW,221,1.0,1.0,97,0.00,,---,0.16,VWS V14.01,2013-01-15 05:36:00,
2013-01-14 20:41:00,31.6,30.9,29.76,SW,221,1.0,3.0,97,0.00,,---,0.16,VWS V14.01,2013-01-15 05:41:00,
2013-01-14 20:46:00,31.5,30.8,29.77,SW,221,0.0,3.0,97,0.00,,---,0.16,VWS V14.01,2013-01-15 05:46:00,
2013-01-14 20:51:00,31.5,30.8,29.77,SW,221,0.0,3.0,97,0.00,,---,0.16,VWS V14.01,2013-01-15 05:51:00,
2013-01-14 20:56:00,31.5,30.8,29.77,SW,221,0.0,3.0,97,0.00,,---,0.16,VWS V14.01,2013-01-15 05:56:00,
2013-01-14 21:01:00,31.4,30.6,29.78,SW,221,0.0,3.0,97,0.00,,---,0.16,VWS V14.01,2013-01-15 06:01:00,
2013-01-14 21:06:00,31.4,30.6,29.78,SW,221,1.0,3.0,97,0.00,,---,0.16,VWS V14.01,2013-01-15 06:06:00,
2013-01-14 21:11:00,31.4,30.6,29.78,SW,221,0.0,3.0,97,0.00,,---,0.16,VWS V14.01,2013-01-15 06:11:00,
2013-01-14 21:16:00,31.4,30.6,29.79,SW,221,0.0,5.0,97,0.00,,---,0.16,VWS V14.01,2013-01-15 06:16:00,
2013-01-14 21:21:00,31.3,30.5,29.79,SW,221,2.0,5.0,97,0.00,,---,0.16,VWS V14.01,2013-01-15 06:21:00,
2013-01-14 21:26:00,31.2,30.5,29.79,SW,221,1.0,5.0,97,0.00,,---,0.16,VWS V14.01,2013-01-15 06:26:00,
2013-01-14 21:31:00,31.1,30.4,29.80,SW,221,1.0,5.0,97,0.00,,---,0.16,VWS V14.01,2013-01-15 06:31:00,
2013-01-14 21:36:00,31.0,30.2,29.80,SW,221,0.0,5.0,97,0.00,,---,0.16,VWS V14.01,2013-01-15 06:36:00,
2013-01-14 21:41:00,30.8,30.0,29.81,SW,221,2.0,5.0,97,0.00,,---,0.16,VWS V14.01,2013-01-15 06:41:00,
2013-01-14 21:46:00,30.6,29.9,29.81,SW,221,0.0,5.0,97,0.00,,---,0.16,VWS V14.01,2013-01-15 06:46:00,
2013-01-14 21:51:00,30.6,29.9,29.82,SW,221,0.0,5.0,97,0.00,,---,0.16,VWS V14.01,2013-01-15 06:51:00,
2013-01-14 21:56:00,30.5,29.8,29.82,SW,221,0.0,5.0,97,0.00,,---,0.16,VWS V14.01,2013-01-15 06:56:00,
2013-01-14 22:01:00,30.3,29.5,29.82,SW,221,2.0,6.0,97,0.00,,---,0.16,VWS V14.01,2013-01-15 07:01:00,
2013-01-14 22:06:00,30.1,29.4,29.83,SW,221,2.0,5.0,97,0.00,,---,0.16,VWS V14.01,2013-01-15 07:06:00,
2013-01-14 22:11:00,29.9,29.1,29.83,SW,221,2.0,5.0,97,0.00,,---,0.16,VWS V14.01,2013-01-15 07:11:00,
2013-01-14 22:16:00,29.7,29.0,29.83,SW,221,1.0,6.0,97,0.00,,---,0.16,VWS V14.01,2013-01-15 07:16:00,
2013-01-14 22:21:00,29.6,28.9,29.84,SW,221,0.0,6.0,97,0.00,,---,0.16,VWS V14.01,2013-01-15 07:21:00,
2013-01-14 22:26:00,29.4,28.7,29.84,SW,221,0.0,6.0,97,0.00,,---,0.16,VWS V14.01,2013-01-15 07:26:00,
2013-01-14 22:31:00,29.2,28.5,29.84,SW,221,2.0,6.0,97,0.00,,---,0.16,VWS V14.01,2013-01-15 07:31:00,
2013-01-14 22:36:00,28.9,28.2,29.85,SW,221,0.0,6.0,97,0.00,,---,0.16,VWS V14.01,2013-01-15 07:36:00,
2013-01-14 22:41:00,28.8,28.1,29.86,SW,221,2.0,6.0,97,0.00,,---,0.16,VWS V14.01,2013-01-15 07:41:00,
2013-01-14 22:46:00,28.8,28.1,29.87,SW,221,1.0,6.0,97,0.00,,---,0.16,VWS V14.01,2013-01-15 07:46:00,
2013-01-14 22:51:00,28.6,27.9,29.88,SW,221,4.0,6.0,97,0.00,,---,0.16,VWS V14.01,2013-01-15 07:51:00,
2013-01-14 22:56:00,27.5,26.5,29.87,SW,221,1.0,8.0,96,0.00,,---,0.16,VWS V14.01,2013-01-15 07:56:00,
2013-01-14 23:01:00,26.7,25.5,29.88,SW,221,2.0,8.0,95,0.00,,---,0.16,VWS V14.01,2013-01-15 08:01:00,
2013-01-14 23:06:00,26.1,24.6,29.89,SW,221,3.0,8.0,94,0.00,,---,0.16,VWS V14.01,2013-01-15 08:06:00,
2013-01-14 23:11:00,25.9,24.4,29.89,SW,221,0.0,8.0,94,0.00,,---,0.16,VWS V14.01,2013-01-15 08:11:00,
2013-01-14 23:16:00,25.7,24.5,29.90,SW,221,0.0,8.0,95,0.00,,---,0.16,VWS V14.01,2013-01-15 08:16:00,
2013-01-14 23:21:00,25.7,24.5,29.90,SW,221,1.0,8.0,95,0.00,,---,0.16,VWS V14.01,2013-01-15 08:21:00,
2013-01-14 23:26:00,25.7,24.5,29.91,SW,221,2.0,8.0,95,0.00,,---,0.16,VWS V14.01,2013-01-15 08:26:00,
2013-01-14 23:31:00,25.7,24.5,29.91,SW,221,3.0,8.0,95,0.00,,---,0.16,VWS V14.01,2013-01-15 08:31:00,
2013-01-14 23:36:00,25.7,24.5,29.92,SW,221,0.0,4.0,95,0.00,,---,0.16,VWS V14.01,2013-01-15 08:36:00,
2013-01-14 23:41:00,25.7,24.5,29.92,SW,221,1.0,5.0,95,0.00,,---,0.16,VWS V14.01,2013-01-15 08:41:00,
2013-01-14 23:46:00,25.6,24.1,29.92,SW,221,1.0,6.0,94,0.00,,---,0.16,VWS V14.01,2013-01-15 08:46:00,
2013-01-14 23:51:00,25.5,24.0,29.93,SW,221,1.0,6.0,94,0.00,,---,0.16,VWS V14.01,2013-01-15 08:51:00,
2013-01-14 23:56:00,25.4,23.9,29.93,SW,221,3.0,6.0,94,0.00,,---,0.16,VWS V14.01,2013-01-15 08:56:00,